Location: Alvediston
(51.0078°N, 2.0364°W)
Time: 21:31:56
(UTC+00:00)

STARLINK-1024 - Pass Details

Date: 27 February 2020
Orbit: 548 x 551 km, 53.0° (Epoch: 29 March)

Event Time Altitude Azimuth Distance (km) Brightness Sun altitude
Rises 20:05:59 0° 271° (W) 2,717 8.5 -22.8°
Reaches altitude 10° 20:08:14 10° 275° (W) 1,824 7.3 -23.2°
Enters shadow 20:12:16 65° 349° (N) 608 3.8 -23.8°
